Tracking 30289 objects as of 29-Apr-2025
HD Live streaming from Space Station
objects crossing your sky now

STARLINK-32935

Track STARLINK-32935 now!
10-day predictions
STARLINK-32935 is classified as:


NORAD ID: 63202
Int'l Code: 2025-048V
Perigee: 450.6 km
Apogee: 451.9 km
Inclination: 43.0 °
Period: 93.5 minutes
Semi major axis: 6822 km
RCS: Unknown
Launch date: March 13, 2025
Source: United States (US)
Launch site: AIR FORCE EASTERN TEST RANGE (AFETR)
Your satellite tracking list
Your tracking list is empty




NASA's NSSDC Master Catalog

Two Line Element Set (TLE):
1 63202U 25048V   25118.88260574 -.00002049  00000-0 -41835-4 0  9991
2 63202  43.0030  66.0332 0000950 265.4381  94.6367 15.40685782  8917
Source of the keplerian elements: AFSPC